N5XJB Weather Reports


time (UTC)temp
C
wind
direction
speed
KPH
gust
KPH
rain 1hr
cm
rain 24hr
cm
rain mn
cm
humidity
%
barometer
mb
20260502170442 21 60 1.6 1.6 0.00 0.00 0.00 54 1022.0
20260502163925 21 308 3.2 3.2 0.00 0.00 0.00 58 1022.0
20260502163422 21 301 3.2 3.2 0.00 0.00 0.00 57 1021.6
20260502162920 21 348 4.8 4.8 0.00 0.00 0.00 56 1022.0
20260502162416 21 324 3.2 3.2 0.00 0.00 0.00 58 1022.0
20260502161913 21 300 0.0 0.0 0.00 0.00 0.00 60 1022.0
20260502161409 21 306 3.2 3.2 0.00 0.00 0.00 59 1022.0
20260502160907 20 302 0.0 0.0 0.00 0.00 0.00 62 1022.0
20260502160406 20 342 3.2 3.2 0.00 0.00 0.00 64 1021.6
20260502152334 19 18 3.2 3.2 0.00 0.00 0.00 69 1021.6
20260502151831 18 328 4.8 6.4 0.00 0.00 0.00 70 1021.6
20260502151328 18 310 3.2 3.2 0.00 0.00 0.00 72 1021.3
20260502150826 18 51 4.8 4.8 0.00 0.00 0.00 72 1021.6
20260502150322 17 318 4.8 4.8 0.00 0.00 0.00 74 1021.6
20260502130710 13 26 0.0 0.0 0.00 0.00 0.00 90 1020.3
20260502130208 13 25 0.0 0.0 0.00 0.00 0.00 90 1020.3
20260502123654 12 31 0.0 0.0 0.00 0.00 0.00 94 1019.9
20260502123151 12 31 0.0 0.0 0.00 0.00 0.00 95 1019.9
20260502122647 11 31 0.0 0.0 0.00 0.00 0.00 95 1019.9
20260502122144 11 31 0.0 0.0 0.00 0.00 0.00 95 1019.9
20260502121642 11 31 0.0 0.0 0.00 0.00 0.00 95 1019.9
20260502121139 11 31 0.0 0.0 0.00 0.00 0.00 95 1019.6
20260502120635 11 31 0.0 0.0 0.00 0.00 0.00 95 1019.6
20260502120132 11 31 0.0 0.0 0.00 0.00 0.00 95 1019.6
20260502115630 11 31 0.0 0.0 0.00 0.00 0.00 95 1019.6
20260502115126 11 31 0.0 0.0 0.00 0.00 0.00 95 1019.6
20260502114622 11 31 0.0 0.0 0.00 0.00 0.00 95 1019.6
20260502114120 11 31 0.0 0.0 0.00 0.00 0.00 95 1019.6
20260502113617 11 30 0.0 0.0 0.00 0.00 0.00 95 1019.3
20260502113115 11 30 0.0 0.0 0.00 0.00 0.00 95 1019.3
20260502112613 11 30 0.0 0.0 0.00 0.00 0.00 95 1019.3
20260502112110 11 30 0.0 0.0 0.00 0.00 0.00 95 1019.3
20260502111608 11 37 0.0 0.0 0.00 0.00 0.00 95 1018.9
20260502111105 11 30 0.0 0.0 0.00 0.00 0.00 95 1018.9
20260502110602 11 28 0.0 0.0 0.00 0.00 0.00 95 1018.9
20260502110059 11 28 0.0 0.0 0.00 0.00 0.00 95 1019.3
20260502105557 11 26 0.0 0.0 0.00 0.00 0.00 95 1018.9
20260502105054 11 26 0.0 0.0 0.00 0.00 0.00 95 1018.9
20260502104551 11 25 0.0 0.0 0.00 0.00 0.00 95 1018.9
20260502104048 11 25 0.0 0.0 0.00 0.00 0.00 95 1018.6
20260502103546 11 25 0.0 0.0 0.00 0.00 0.00 95 1018.6
20260502103044 11 25 0.0 0.0 0.00 0.00 0.00 95 1018.9
20260502102540 11 24 0.0 0.0 0.00 0.00 0.00 95 1018.6
20260502102037 11 24 0.0 0.0 0.00 0.00 0.00 95 1018.6
20260502101535 11 24 0.0 0.0 0.00 0.00 0.00 95 1018.6
20260502101033 11 23 0.0 0.0 0.00 0.00 0.00 95 1018.6
20260502100531 11 24 0.0 0.0 0.00 0.00 0.00 95 1018.2
20260502091506 12 23 0.0 0.0 0.00 0.00 0.00 93 1017.5
20260502091004 12 23 0.0 0.0 0.00 0.00 0.00 93 1017.5
20260502090500 12 23 0.0 0.0 0.00 0.00 0.00 93 1017.1
20260502071355 13 4 0.0 0.0 0.00 0.00 0.00 93 1017.1
20260502070853 13 0 0.0 0.0 0.00 0.00 0.00 93 1017.5
20260502070350 12 358 0.0 0.0 0.00 0.00 0.00 93 1017.5
20260502065849 12 354 0.0 0.0 0.00 0.00 0.00 94 1017.5
20260502065347 12 76 0.0 0.0 0.00 0.00 0.00 94 1017.1
20260502064844 12 76 0.0 0.0 0.00 0.00 0.00 95 1017.1
20260502064342 12 61 0.0 0.0 0.00 0.00 0.00 95 1016.8
20260502063839 12 63 0.0 0.0 0.00 0.00 0.00 95 1017.5
20260502063337 12 303 0.0 0.0 0.00 0.00 0.00 95 1017.1
20260502062834 12 288 0.0 0.0 0.00 0.00 0.00 95 1017.1
20260502062331 12 288 0.0 0.0 0.00 0.00 0.00 95 1017.1
20260502061830 12 288 0.0 0.0 0.00 0.00 0.00 95 1016.8
20260502061328 12 279 0.0 0.0 0.00 0.00 0.00 95 1017.1
20260502060823 13 48 0.0 0.0 0.00 0.00 0.00 95 1016.8
20260502060318 13 46 0.0 0.0 0.00 0.00 0.00 95 1016.8
20260502055816 13 356 4.8 6.4 0.00 0.00 0.00 95 1016.8
20260502055314 13 40 0.0 0.0 0.00 0.00 0.00 95 1016.8
20260502054813 13 15 0.0 0.0 0.00 0.00 0.00 95 1016.8
20260502054311 13 36 0.0 0.0 0.00 0.00 0.00 95 1016.8
20260502053808 13 12 0.0 0.0 0.00 0.00 0.00 95 1016.8
20260502053305 13 17 0.0 0.0 0.00 0.00 0.00 96 1016.8
20260502052803 13 33 0.0 0.0 0.00 0.00 0.00 96 1016.8
20260502052301 13 305 4.8 4.8 0.00 0.00 0.00 96 1016.8
20260502051758 13 42 0.0 0.0 0.00 0.00 0.00 96 1016.8
20260502051257 13 57 0.0 0.0 0.00 0.00 0.00 96 1016.8
20260502050752 13 66 0.0 0.0 0.00 0.00 0.00 97 1016.5
20260502050248 13 311 0.0 0.0 0.00 0.00 0.00 97 1016.8
20260502045746 13 52 0.0 0.0 0.00 9.12 9.12 97 1016.8
20260502045243 13 348 0.0 0.0 0.00 9.12 9.12 97 1016.8
20260502044739 13 18 0.0 0.0 0.00 9.12 9.12 97 1016.8
20260502044235 13 330 1.6 1.6 0.00 9.12 9.12 97 1016.5
20260502043733 13 322 3.2 3.2 0.00 9.12 9.12 97 1016.5
20260502043231 13 44 0.0 0.0 0.00 9.12 9.12 97 1016.8
20260502042730 13 288 3.2 3.2 0.00 9.12 9.12 97 1016.8
20260502042228 13 46 3.2 3.2 0.00 9.12 9.12 97 1016.5
20260502041725 13 344 3.2 3.2 0.00 9.12 9.12 97 1016.8
20260502041222 13 344 3.2 3.2 0.00 9.12 9.12 97 1016.8
20260502040719 13 52 6.4 8.0 0.00 9.12 9.12 97 1016.8
20260502040216 13 48 4.8 4.8 0.00 9.12 9.12 97 1016.8
20260502035712 13 283 0.0 0.0 0.00 9.12 9.12 97 1016.8
20260502035209 13 307 3.2 3.2 0.00 9.12 9.12 97 1016.8
20260502034707 13 283 3.2 3.2 0.00 9.12 9.12 97 1016.8
20260502034205 13 300 0.0 0.0 0.00 9.12 9.12 97 1016.5
20260502033702 13 46 0.0 0.0 0.00 9.12 9.12 97 1016.5
20260502033200 13 40 3.2 3.2 0.00 9.12 9.12 97 1016.8
20260502032656 13 318 3.2 3.2 0.00 9.12 9.12 98 1016.5
20260502032152 13 306 3.2 3.2 0.00 9.12 9.12 98 1016.1
20260502031650 13 343 1.6 1.6 0.00 9.12 9.12 98 1016.1
20260502031148 13 26 0.0 0.0 0.00 9.12 9.12 98 1016.1
20260502030647 13 42 8.0 9.7 0.00 9.12 9.12 98 1015.8
20260502030144 13 57 3.2 3.2 0.00 9.12 9.12 98 1015.8
20260502025641 13 282 0.0 0.0 0.15 9.12 9.12 98 1015.8
20260502025139 13 54 3.2 3.2 0.15 9.12 9.12 98 1015.1
20260502024637 13 36 3.2 3.2 0.15 9.12 9.12 98 1015.1
20260502024134 13 309 0.0 0.0 0.15 9.12 9.12 98 1015.1
20260502023633 13 305 0.0 0.0 0.10 9.07 9.07 98 1015.1
20260502023129 13 324 4.8 4.8 0.10 9.07 9.07 98 1014.8
20260502022626 13 293 3.2 3.2 0.08 9.02 9.02 98 1015.1
20260502022123 13 0 0.0 0.0 0.08 9.02 9.02 98 1015.4
20260502021621 13 336 3.2 3.2 0.08 9.02 9.02 98 1015.4
20260502021118 13 10 0.0 0.0 0.03 8.99 8.99 98 1015.1
20260502020615 13 323 3.2 3.2 0.03 8.99 8.99 98 1015.1
20260502020112 13 282 3.2 3.2 0.00 8.94 8.94 98 1014.8
20260502015610 13 336 3.2 3.2 0.23 8.94 8.94 98 1014.8
20260502015106 13 28 3.2 3.2 0.18 8.92 8.92 98 1014.8
20260502014603 14 337 3.2 3.2 0.18 8.92 8.92 98 1015.1
20260502014100 13 283 0.0 0.0 0.18 8.92 8.92 98 1014.8
20260502013555 13 24 3.2 3.2 0.18 8.92 8.92 98 1014.4
20260502013052 13 38 0.0 0.0 0.15 8.86 8.86 98 1014.1
20260502012549 14 47 1.6 1.6 0.15 8.86 8.86 98 1014.1
20260502012047 14 322 3.2 3.2 0.10 8.84 8.84 98 1014.4
20260502011544 14 49 0.0 0.0 0.08 8.79 8.79 98 1014.1
20260502011040 15 309 0.0 0.0 0.03 8.74 8.74 98 1014.1
20260502010537 15 12 0.0 0.0 0.00 8.71 8.71 98 1014.8
20260502010033 15 6 0.0 0.0 0.15 8.71 8.71 98 1014.8
20260502005531 15 6 0.0 0.0 0.15 8.71 8.71 98 1014.8
20260502005029 15 358 0.0 0.0 0.10 8.66 8.66 98 1013.1
20260502004524 14 4 4.8 4.8 0.10 8.66 8.66 98 1012.7
20260502004021 14 54 3.2 3.2 0.08 8.64 8.64 98 1012.4
20260502003520 14 36 3.2 3.2 0.08 8.64 8.64 98 1012.7
20260502003016 15 300 3.2 3.2 0.08 8.64 8.64 98 1013.1
20260502002512 15 283 3.2 3.2 0.03 8.59 8.59 98 1013.4
20260502002010 15 16 0.0 0.0 0.03 8.59 8.59 98 1013.7
20260502001507 15 12 0.0 0.0 0.03 8.59 8.59 98 1013.7
20260502001005 15 18 0.0 0.0 0.03 8.59 8.59 98 1013.1
20260502000503 15 346 3.2 3.2 0.00 8.56 8.56 98 1013.4
20260501235959 15 336 0.0 0.0 0.46 8.56 8.56 98 1013.7
20260501235455 15 321 0.0 0.0 0.43 8.51 8.51 98 1013.7
20260501234950 15 318 0.0 0.0 0.36 8.43 8.43 98 1013.7
20260501234447 15 312 0.0 0.0 0.36 8.43 8.43 98 1012.4
20260501233946 15 306 1.6 1.6 0.36 8.43 8.43 98 1012.4
20260501233443 15 53 3.2 3.2 0.36 8.43 8.43 98 1012.1
20260501232938 15 32 3.2 3.2 0.36 8.43 8.43 98 1012.4
20260501232436 15 47 0.0 0.0 0.36 8.43 8.43 98 1012.1
20260501231933 15 324 0.0 0.0 0.36 8.43 8.43 98 1011.4
20260501231431 15 324 0.0 0.0 0.30 8.38 8.38 98 1012.4
20260501230929 15 42 0.0 0.0 0.18 8.26 8.26 98 1012.4
20260501230428 15 42 0.0 0.0 0.00 8.08 8.08 98 1013.7
20260501225925 15 32 0.0 0.0 0.03 8.03 8.03 97 1012.4
20260501225423 15 53 0.0 0.0 0.00 7.98 7.98 97 1011.4
20260501224918 15 18 0.0 0.0 0.00 7.98 7.98 98 1012.1
20260501224416 15 348 0.0 0.0 0.00 7.98 7.98 98 1011.7
20260501223912 15 349 3.2 3.2 0.00 7.98 7.98 98 1011.0
20260501223408 15 28 3.2 3.2 0.00 7.98 7.98 98 1011.4
20260501222904 15 43 0.0 0.0 0.00 7.98 7.98 98 1011.4
20260501222402 15 36 0.0 0.0 0.00 7.98 7.98 98 1011.0
20260501221858 15 44 0.0 0.0 0.00 7.98 7.98 98 1011.0
20260501221355 15 18 3.2 3.2 0.00 7.98 7.98 98 1011.4
20260501220853 16 16 0.0 0.0 0.00 7.98 7.98 98 1011.7
20260501220350 16 66 3.2 3.2 0.00 7.98 7.98 98 1011.7
20260501215847 16 316 3.2 3.2 0.08 7.98 7.98 98 1011.7
20260501215343 16 348 0.0 0.0 0.08 7.98 7.98 98 1012.1
20260501214839 16 48 0.0 0.0 0.08 7.98 7.98 99 1012.4
20260501214334 16 48 0.0 0.0 0.08 7.98 7.98 99 1012.4
20260501213830 16 46 0.0 0.0 0.08 7.98 7.98 99 1012.7
20260501213327 16 48 0.0 0.0 0.03 7.95 7.95 99 1012.4
20260501212823 16 42 0.0 0.0 0.03 7.95 7.95 98 1012.1
20260501212320 16 42 0.0 0.0 0.00 7.90 7.90 99 1012.1
20260501211817 16 80 0.0 0.0 0.00 7.90 7.90 99 1012.4
20260501211314 16 112 0.0 0.0 0.00 7.90 7.90 99 1011.7
20260501210811 16 46 4.8 4.8 0.00 7.90 7.90 99 1010.7
20260501210308 16 54 3.2 3.2 0.00 7.90 7.90 98 1010.4
20260501205804 16 0 0.0 0.0 0.43 7.90 7.90 99 1011.0
20260501205301 16 355 0.0 0.0 0.43 7.90 7.90 99 1011.7
20260501204758 16 347 0.0 0.0 0.38 7.87 7.87 99 1011.0
20260501204254 16 330 1.6 1.6 0.38 7.87 7.87 99 1011.0
20260501203751 16 12 0.0 0.0 0.36 7.82 7.82 99 1011.7
20260501203249 16 42 0.0 0.0 0.30 7.80 7.80 99 1010.7
20260501202745 16 42 0.0 0.0 0.30 7.80 7.80 99 1010.7
20260501202242 16 44 3.2 3.2 0.30 7.80 7.80 99 1011.4
20260501201739 16 342 0.0 0.0 0.28 7.75 7.75 99 1010.7
20260501201236 16 52 0.0 0.0 0.15 7.62 7.62 99 1010.7
20260501200732 16 342 0.0 0.0 0.03 7.52 7.52 99 1010.7
20260501200230 16 354 0.0 0.0 0.00 7.47 7.47 99 1010.7
20260501195727 16 342 3.2 3.2 0.30 7.42 7.42 99 1010.7
20260501195223 16 292 0.0 0.0 0.30 7.42 7.42 99 1010.4
20260501194719 16 287 0.0 0.0 0.28 7.39 7.39 99 1010.4
20260501194215 16 37 0.0 0.0 0.28 7.39 7.39 99 1010.4
20260501193711 16 22 0.0 0.0 0.23 7.34 7.34 99 1010.4
20260501193210 16 60 0.0 0.0 0.15 7.26 7.26 99 1010.7
20260501192707 16 26 0.0 0.0 0.15 7.26 7.26 99 1010.4
20260501192204 16 23 0.0 0.0 0.15 7.26 7.26 99 1010.7
20260501191701 16 24 0.0 0.0 0.10 7.24 7.24 99 1010.4
20260501191159 16 18 0.0 0.0 0.00 7.11 7.11 99 1010.7
20260501190655 16 18 0.0 0.0 0.00 7.11 7.11 99 1010.7
20260501190150 17 18 0.0 0.0 0.00 7.11 7.11 99 1011.0
20260501185646 16 18 0.0 0.0 0.46 7.11 7.11 99 1010.7
20260501185142 16 16 0.0 0.0 0.43 7.06 7.06 99 1010.7
20260501184638 16 17 0.0 0.0 0.43 7.06 7.06 99 1010.4
20260501184133 16 330 0.0 0.0 0.36 6.99 6.99 99 1010.4
20260501183631 16 282 0.0 0.0 0.23 6.86 6.86 99 1010.7
20260501183127 16 282 0.0 0.0 0.23 6.86 6.86 99 1010.4
20260501182624 16 282 0.0 0.0 0.18 6.83 6.83 99 1010.4
20260501182120 16 0 0.0 0.0 0.18 6.83 6.83 99 1009.7
20260501181618 16 0 0.0 0.0 0.15 6.78 6.78 99 1009.0
20260501181114 16 349 1.6 1.6 0.10 6.76 6.76 99 1008.7
20260501180613 16 54 0.0 0.0 0.03 6.65 6.65 99 1009.7
20260501180108 16 58 1.6 1.6 0.00 6.63 6.63 99 1010.0
20260501175605 16 42 3.2 3.2 0.15 6.63 6.63 99 1010.7
20260501175102 16 337 3.2 3.2 0.10 6.58 6.58 99 1010.7
20260501174559 17 59 0.0 0.0 0.10 6.58 6.58 99 1011.4
20260501174056 17 57 0.0 0.0 0.08 6.55 6.55 99 1011.4
20260501173554 17 18 0.0 0.0 0.08 6.55 6.55 99 1011.4
20260501173050 17 6 1.6 1.6 0.03 6.50 6.50 99 1011.4